GSAT-19

Last updated on Thu Sep 10 2026 00:02:59 GMT+0000 (Coordinated Universal Time)

1 42747U 17031A 26252.59510834 .00000104 00000+0 00000+0 0 9991 2 42747 0.0112 126.0659 0003645 347.2762 137.4012 1.00270857 33990
UTC large
Height (km)
Speed (km/s)
/
Latitude / Longitude
Inclination (degrees)
Orbital Period (minutes)
Azimuth
Elevation
Range (km)
Doppler Factor

Next 0 passes for location: London (51.5072 / 0.1276)

No passes found over London.